Time,TemperatureF,DewpointF,PressureIn,WindDirection,WindDirectionDegrees,WindSpeedMPH,WindSpeedGustMPH,Humidity,HourlyPrecipIn,Conditions,Clouds,dailyrainin,SoftwareType,DateUTC
2013-04-09 00:12:00,60.3,59.7,30.01,SE,135,2.7,-999.0,98,-99.99,,,0.00,Acu-Link.com,2013-04-09 04:12:00,
2013-04-09 00:28:00,60.4,59.8,30.00,West,270,1.1,-999.0,98,-99.99,,,0.00,Acu-Link.com,2013-04-09 04:28:00,
2013-04-09 00:43:00,59.9,59.3,30.00,NNE,22,1.7,-999.0,98,-99.99,,,0.00,Acu-Link.com,2013-04-09 04:43:00,
2013-04-09 00:58:00,59.9,59.3,30.01,SE,135,1.1,-999.0,98,-99.99,,,0.00,Acu-Link.com,2013-04-09 04:58:00,
2013-04-09 01:13:00,60.3,59.7,30.00,West,270,2.2,-999.0,98,-99.99,,,0.00,Acu-Link.com,2013-04-09 05:13:00,
2013-04-09 01:28:00,60.1,59.5,30.02,WNW,292,3.2,-999.0,98,-99.99,,,0.00,Acu-Link.com,2013-04-09 05:28:00,
2013-04-09 01:59:00,60.4,59.8,30.01,NW,315,4.7,-999.0,98,-99.99,,,0.00,Acu-Link.com,2013-04-09 05:59:00,
2013-04-09 02:14:00,59.7,59.1,30.00,West,270,5.3,-999.0,98,-99.99,,,0.00,Acu-Link.com,2013-04-09 06:14:00,
2013-04-09 02:29:00,59.4,58.8,30.00,NW,315,4.7,-999.0,98,-99.99,,,0.00,Acu-Link.com,2013-04-09 06:29:00,
2013-04-09 02:45:00,58.8,58.2,30.00,NW,315,2.7,-999.0,98,-99.99,,,0.00,Acu-Link.com,2013-04-09 06:45:00,
2013-04-09 03:00:00,58.1,57.5,30.00,SSW,202,0.0,-999.0,98,-99.99,,,0.00,Acu-Link.com,2013-04-09 07:00:00,
2013-04-09 03:15:00,57.7,57.1,30.01,NNE,22,2.7,-999.0,98,-99.99,,,0.00,Acu-Link.com,2013-04-09 07:15:00,
2013-04-09 03:30:00,57.4,56.8,30.00,NW,315,2.2,-999.0,98,-99.99,,,0.00,Acu-Link.com,2013-04-09 07:30:00,
2013-04-09 03:45:00,57.4,56.8,30.01,WNW,292,4.7,-999.0,98,-99.99,,,0.00,Acu-Link.com,2013-04-09 07:45:00,
2013-04-09 04:32:00,57.2,56.6,30.00,WNW,292,2.2,-999.0,98,-99.99,,,0.00,Acu-Link.com,2013-04-09 08:32:00,
2013-04-09 04:47:00,56.5,55.9,30.01,West,270,2.2,-999.0,98,-99.99,,,0.00,Acu-Link.com,2013-04-09 08:47:00,
2013-04-09 05:02:00,56.7,56.1,30.02,West,270,3.7,-999.0,98,-99.99,,,0.00,Acu-Link.com,2013-04-09 09:02:00,
2013-04-09 05:17:00,57.4,56.8,30.02,WNW,292,3.7,-999.0,98,-99.99,,,0.00,Acu-Link.com,2013-04-09 09:17:00,
2013-04-09 05:32:00,57.6,57.0,30.01,West,270,2.7,-999.0,98,-99.99,,,0.00,Acu-Link.com,2013-04-09 09:32:00,
2013-04-09 05:47:00,57.6,57.0,30.02,WNW,292,1.7,-999.0,98,-99.99,,,0.00,Acu-Link.com,2013-04-09 09:47:00,
2013-04-09 06:03:00,56.3,55.7,30.03,SW,225,0.0,-999.0,98,-99.99,,,0.00,Acu-Link.com,2013-04-09 10:03:00,
2013-04-09 06:18:00,55.2,54.6,30.02,West,270,0.0,-999.0,98,-99.99,,,0.00,Acu-Link.com,2013-04-09 10:18:00,
2013-04-09 06:33:00,55.2,54.6,30.03,NNW,337,0.0,-999.0,98,-99.99,,,0.00,Acu-Link.com,2013-04-09 10:33:00,
2013-04-09 06:49:00,54.9,54.3,30.04,ENE,67,0.0,-999.0,98,-99.99,,,0.00,Acu-Link.com,2013-04-09 10:49:00,
2013-04-09 07:04:00,54.7,54.1,30.05,WNW,292,1.7,-999.0,98,-99.99,,,0.00,Acu-Link.com,2013-04-09 11:04:00,
2013-04-09 07:19:00,55.6,55.0,30.07,WNW,292,1.7,-999.0,98,-99.99,,,0.00,Acu-Link.com,2013-04-09 11:19:00,
2013-04-09 07:34:00,57.4,56.8,30.06,WNW,292,2.2,-999.0,98,-99.99,,,0.00,Acu-Link.com,2013-04-09 11:34:00,
2013-04-09 07:49:00,59.9,59.3,30.06,WNW,292,0.0,-999.0,98,-99.99,,,0.00,Acu-Link.com,2013-04-09 11:49:00,
2013-04-09 08:05:00,63.7,63.1,30.08,WNW,292,0.0,-999.0,98,-99.99,,,0.00,Acu-Link.com,2013-04-09 12:05:00,
2013-04-09 08:20:00,63.9,63.3,30.07,NW,315,2.7,-999.0,98,-99.99,,,0.00,Acu-Link.com,2013-04-09 12:20:00,
2013-04-09 08:35:00,61.0,60.4,30.09,West,270,2.7,-999.0,98,-99.99,,,0.00,Acu-Link.com,2013-04-09 12:35:00,
2013-04-09 08:50:00,62.6,62.0,30.09,WNW,292,3.2,-999.0,98,-99.99,,,0.00,Acu-Link.com,2013-04-09 12:50:00,
2013-04-09 09:05:00,62.8,62.2,30.09,NNW,337,2.2,-999.0,98,-99.99,,,0.00,Acu-Link.com,2013-04-09 13:05:00,
2013-04-09 09:20:00,64.8,64.2,30.09,NNW,337,2.7,-999.0,98,-99.99,,,0.00,Acu-Link.com,2013-04-09 13:20:00,
2013-04-09 09:36:00,66.0,65.4,30.09,NNW,337,1.7,-999.0,98,-99.99,,,0.00,Acu-Link.com,2013-04-09 13:36:00,
2013-04-09 10:21:00,69.3,68.7,30.10,West,270,0.0,-999.0,98,-99.99,,,0.00,Acu-Link.com,2013-04-09 14:21:00,
2013-04-09 10:37:00,71.1,67.0,30.11,NNW,337,1.7,-999.0,87,-99.99,,,0.00,Acu-Link.com,2013-04-09 14:37:00,
2013-04-09 10:52:00,72.9,68.1,30.10,ESE,112,4.2,-999.0,85,-99.99,,,0.00,Acu-Link.com,2013-04-09 14:52:00,
2013-04-09 11:07:00,71.8,66.3,30.09,NNE,22,2.2,-999.0,83,-99.99,,,0.00,Acu-Link.com,2013-04-09 15:07:00,
2013-04-09 11:22:00,73.8,66.9,30.10,WNW,292,5.3,-999.0,79,-99.99,,,0.00,Acu-Link.com,2013-04-09 15:22:00,
2013-04-09 11:37:00,74.1,64.5,30.09,ESE,112,4.7,-999.0,72,-99.99,,,0.00,Acu-Link.com,2013-04-09 15:37:00,
2013-04-09 11:52:00,74.5,63.2,30.09,NW,315,3.2,-999.0,68,-99.99,,,0.00,Acu-Link.com,2013-04-09 15:52:00,
2013-04-09 12:23:00,72.1,63.7,30.08,SSW,202,2.2,-999.0,75,-99.99,,,0.00,Acu-Link.com,2013-04-09 16:23:00,
2013-04-09 12:38:00,76.5,64.7,30.08,NNW,337,6.3,-999.0,67,-99.99,,,0.00,Acu-Link.com,2013-04-09 16:38:00,
2013-04-09 12:53:00,77.9,64.7,30.08,ESE,112,4.7,-999.0,64,-99.99,,,0.00,Acu-Link.com,2013-04-09 16:53:00,
2013-04-09 13:08:00,77.4,64.2,30.06,WNW,292,4.7,-999.0,64,-99.99,,,0.00,Acu-Link.com,2013-04-09 17:08:00,
2013-04-09 13:39:00,79.7,65.0,30.06,South,180,6.8,-999.0,61,-99.99,,,0.00,Acu-Link.com,2013-04-09 17:39:00,
2013-04-09 13:54:00,77.2,61.7,30.05,South,180,2.7,-999.0,59,-99.99,,,0.00,Acu-Link.com,2013-04-09 17:54:00,
2013-04-09 14:09:00,77.4,63.3,30.04,NNW,337,1.1,-999.0,62,-99.99,,,0.00,Acu-Link.com,2013-04-09 18:09:00,
2013-04-09 14:40:00,79.0,63.4,30.03,South,180,10.4,-999.0,59,-99.99,,,0.00,Acu-Link.com,2013-04-09 18:40:00,
2013-04-09 14:55:00,78.4,62.4,30.03,ESE,112,1.1,-999.0,58,-99.99,,,0.00,Acu-Link.com,2013-04-09 18:55:00,
2013-04-09 15:10:00,78.8,62.8,30.03,SSE,157,5.3,-999.0,58,-99.99,,,0.00,Acu-Link.com,2013-04-09 19:10:00,
2013-04-09 15:25:00,79.7,64.1,30.02,SE,135,5.3,-999.0,59,-99.99,,,0.00,Acu-Link.com,2013-04-09 19:25:00,
2013-04-09 15:41:00,78.3,63.7,30.02,SE,135,7.3,-999.0,61,-99.99,,,0.00,Acu-Link.com,2013-04-09 19:41:00,
2013-04-09 15:56:00,78.6,64.9,30.00,ESE,112,7.3,-999.0,63,-99.99,,,0.00,Acu-Link.com,2013-04-09 19:56:00,
2013-04-09 16:42:00,79.0,64.4,29.98,WSW,247,3.7,-999.0,61,-99.99,,,0.00,Acu-Link.com,2013-04-09 20:42:00,
2013-04-09 16:57:00,77.7,64.1,29.99,SSE,157,5.3,-999.0,63,-99.99,,,0.00,Acu-Link.com,2013-04-09 20:57:00,
2013-04-09 17:12:00,76.1,63.5,29.99,WNW,292,3.2,-999.0,65,-99.99,,,0.00,Acu-Link.com,2013-04-09 21:12:00,
2013-04-09 17:27:00,75.2,63.5,29.99,South,180,5.3,-999.0,67,-99.99,,,0.00,Acu-Link.com,2013-04-09 21:27:00,
2013-04-09 17:42:00,75.2,63.0,29.99,West,270,3.7,-999.0,66,-99.99,,,0.00,Acu-Link.com,2013-04-09 21:42:00,
2013-04-09 18:13:00,74.5,63.2,30.00,SSE,157,10.4,-999.0,68,-99.99,,,0.00,Acu-Link.com,2013-04-09 22:13:00,
2013-04-09 18:28:00,73.0,62.6,30.00,ESE,112,4.2,-999.0,70,-99.99,,,0.00,Acu-Link.com,2013-04-09 22:28:00,
2013-04-09 18:59:00,71.1,63.1,30.00,ESE,112,2.7,-999.0,76,-99.99,,,0.00,Acu-Link.com,2013-04-09 22:59:00,
2013-04-09 19:14:00,70.5,63.3,30.01,West,270,6.8,-999.0,78,-99.99,,,0.00,Acu-Link.com,2013-04-09 23:14:00,
2013-04-09 19:29:00,69.3,63.9,30.00,SW,225,1.7,-999.0,83,-99.99,,,0.00,Acu-Link.com,2013-04-09 23:29:00,
2013-04-09 19:44:00,68.9,64.2,30.01,NE,45,1.1,-999.0,85,-99.99,,,0.00,Acu-Link.com,2013-04-09 23:44:00,
2013-04-09 20:00:00,67.8,64.8,30.00,WNW,292,3.2,-999.0,90,-99.99,,,0.00,Acu-Link.com,2013-04-10 00:00:00,
2013-04-09 20:15:00,67.1,66.5,30.01,NNW,337,2.7,-999.0,98,-99.99,,,0.00,Acu-Link.com,2013-04-10 00:15:00,
2013-04-09 20:30:00,66.9,66.3,30.01,West,270,2.7,-999.0,98,-99.99,,,0.00,Acu-Link.com,2013-04-10 00:30:00,
2013-04-09 20:45:00,66.4,65.8,30.02,SW,225,3.7,-999.0,98,-99.99,,,0.00,Acu-Link.com,2013-04-10 00:45:00,
2013-04-09 21:16:00,65.8,65.2,30.02,West,270,4.2,-999.0,98,-99.99,,,0.00,Acu-Link.com,2013-04-10 01:16:00,
2013-04-09 21:31:00,66.0,65.4,30.02,West,270,4.7,-999.0,98,-99.99,,,0.00,Acu-Link.com,2013-04-10 01:31:00,
2013-04-09 22:02:00,65.8,65.2,30.02,SW,225,3.7,-999.0,98,-99.99,,,0.00,Acu-Link.com,2013-04-10 02:02:00,
2013-04-09 22:17:00,65.5,64.9,30.01,West,270,3.2,-999.0,98,-99.99,,,0.00,Acu-Link.com,2013-04-10 02:17:00,
2013-04-09 22:32:00,64.9,64.3,30.01,North,0,1.7,-999.0,98,-99.99,,,0.00,Acu-Link.com,2013-04-10 02:32:00,
2013-04-09 22:47:00,64.0,63.4,30.01,West,270,2.2,-999.0,98,-99.99,,,0.00,Acu-Link.com,2013-04-10 02:47:00,
2013-04-09 23:03:00,64.0,63.4,30.02,WNW,292,1.1,-999.0,98,-99.99,,,0.00,Acu-Link.com,2013-04-10 03:03:00,
2013-04-09 23:18:00,64.2,63.6,30.01,NW,315,2.7,-999.0,98,-99.99,,,0.00,Acu-Link.com,2013-04-10 03:18:00,
2013-04-09 23:33:00,64.0,63.4,30.01,WNW,292,2.7,-999.0,98,-99.99,,,0.00,Acu-Link.com,2013-04-10 03:33:00,
2013-04-09 23:48:00,63.9,63.3,30.01,WNW,292,3.7,-999.0,98,-99.99,,,0.00,Acu-Link.com,2013-04-10 03:48:00,